Weather History for KORE - October, 2010

Change the Weather History Date:

Friday, October 15, 2010

  Actual Average Record
Temperature  
Mean Temperature 45 °F -  
Max Temperature 48 °F 57 °F 75 °F (2014)
Min Temperature 42 °F 34 °F 24 °F (2002)
Degree Days  
Heating Degree Days 20    
Moisture  
Dew Point 41 °F    
Average Humidity 87    
Maximum Humidity 100    
Minimum Humidity 68    
Precipitation  
Precipitation 1.46 in - - ()
Sea Level Pressure  
Sea Level Pressure 29.36 in    
Wind  
Wind Speed 10 mph (NW)    
Max Wind Speed 22 mph    
Max Gust Speed 37 mph    
Visibility 8 miles    
Events Rain    
Averages and records for this station are not official NWS values.
T = Trace of Precipitation, MM = Missing Value Source: NWS Daily Summary

Daily Weather History Graph

Daily Weather History Graph

Search for Another Location

Airport or City:

Trip Planner

Search our weather history database for the weather conditions in past years. The results will help you decide how hot, cold, wet, or windy it might be!

Date:

Astronomy

Oct. 15, 2010 Rise Set
Actual Time 7:02 AM EDT 6:07 PM EDT
Civil Twilight 6:33 AM EDT 6:35 PM EDT
Nautical Twilight 6:01 AM EDT 7:08 PM EDT
Astronomical Twilight 5:28 AM EDT 7:40 PM EDT
Moon 2:36 PM EDT (10/15) No Moon Set
Length of Visible Light 12h 01m
Length of Day
11h 04m
First Quarter, 57% of the Moon is Illuminated
Oct 15
First Quarter
Oct 22
Full
Oct 30
Last Quarter
Nov 6
New
Nov 13
First Quarter

Hourly Weather History & Observations

Time (EDT) Temp. Windchill Dew Point Humidity Pressure Visibility Wind Dir Wind Speed Gust Speed Precip Events Conditions
12:19 AM 48.2 °F - 48.2 °F 100% 29.68 in 4.0 mi Variable 4.6 mph - 0.07 in Rain Rain
12:52 AM 48.9 °F - 46.9 °F 93% 29.65 in 5.0 mi NNE 6.9 mph - 0.17 in Rain Rain
1:18 AM 48.2 °F - 46.4 °F 93% 29.65 in 7.0 mi North 4.6 mph - 0.07 in Rain Rain
1:52 AM 48.9 °F - 46.9 °F 93% 29.60 in 6.0 mi North 9.2 mph - 0.15 in Rain Rain
2:21 AM 48.2 °F - 46.4 °F 93% 29.55 in 6.0 mi North 10.4 mph - 0.05 in Rain Rain
3:52 AM 48.0 °F - 46.0 °F 93% 29.48 in 5.0 mi NNW 12.7 mph - 0.12 in Rain Rain
4:52 AM 46.9 °F - 45.0 °F 93% 29.44 in 6.0 mi NNW 15.0 mph - 0.18 in Rain Rain
5:37 AM 46.4 °F 40.7 °F 44.6 °F 93% 29.43 in 5.0 mi WNW 12.7 mph - 0.14 in Rain Rain
5:48 AM 46.4 °F 40.1 °F 44.6 °F 93% 29.40 in 4.0 mi NNW 15.0 mph 20.7 mph 0.18 in Rain Heavy Rain
5:52 AM 46.0 °F 39.3 °F 45.0 °F 96% 29.40 in 4.0 mi North 16.1 mph - 0.20 in Rain Heavy Rain
6:01 AM 46.4 °F 40.1 °F 44.6 °F 93% 29.39 in 4.0 mi North 15.0 mph 23.0 mph 0.05 in Rain Heavy Rain
6:44 AM 44.6 °F 37.2 °F 42.8 °F 93% 29.33 in 7.0 mi NNW 17.3 mph 33.4 mph 0.13 in Rain Rain
6:52 AM 45.0 °F 39.3 °F 42.1 °F 90% 29.34 in 10.0 mi NNW 11.5 mph 27.6 mph 0.14 in Rain Light Rain
7:26 AM 44.6 °F 38.8 °F 41.0 °F 87% 29.33 in 10.0 mi NW 11.5 mph 19.6 mph 0.00 in Rain Light Rain
7:52 AM 43.0 °F 37.2 °F 39.9 °F 89% 29.34 in 10.0 mi WNW 10.4 mph 25.3 mph 0.01 in   Overcast
8:15 AM 42.8 °F 35.4 °F 39.2 °F 87% 29.33 in 10.0 mi NW 15.0 mph 24.2 mph 0.00 in Rain Light Rain
8:52 AM 42.1 °F 34.9 °F 39.9 °F 92% 29.34 in 10.0 mi WNW 13.8 mph 20.7 mph 0.00 in Rain Light Rain
9:48 AM 42.8 °F 36.6 °F 39.2 °F 87% 29.30 in 6.0 mi West 11.5 mph 20.7 mph 0.05 in Rain Light Rain
9:52 AM 43.0 °F 36.8 °F 39.9 °F 89% 29.31 in 6.0 mi West 11.5 mph 20.7 mph 0.06 in Rain Light Rain
10:52 AM 44.1 °F 37.4 °F 41.0 °F 89% 29.29 in 10.0 mi West 13.8 mph 21.9 mph 0.04 in Rain Light Rain
11:52 AM 45.0 °F 39.7 °F 42.1 °F 90% 29.27 in 10.0 mi West 10.4 mph 18.4 mph 0.04 in Rain Light Rain
12:52 PM 46.0 °F 41.0 °F 42.1 °F 86% 29.25 in 10.0 mi WNW 10.4 mph - 0.04 in Rain Light Rain
1:52 PM 46.0 °F 41.9 °F 42.1 °F 86% 29.23 in 10.0 mi West 8.1 mph 20.7 mph 0.04 in Rain Light Rain
2:52 PM 45.0 °F 39.3 °F 39.9 °F 82% 29.22 in 10.0 mi West 11.5 mph 20.7 mph 0.05 in Rain Light Rain
3:52 PM 46.0 °F 40.6 °F 39.9 °F 79% 29.21 in 10.0 mi West 11.5 mph - 0.01 in Rain Light Rain
4:52 PM 46.0 °F 40.6 °F 39.0 °F 76% 29.22 in 10.0 mi West 11.5 mph 19.6 mph 0.03 in Rain Light Rain
5:52 PM 43.0 °F 35.7 °F 39.0 °F 86% 29.25 in 4.0 mi WNW 15.0 mph 26.5 mph 0.08 in Rain Rain
6:06 PM 42.8 °F 37.0 °F 37.4 °F 81% 29.25 in 5.0 mi West 10.4 mph 25.3 mph 0.03 in Rain Rain
6:52 PM 42.1 °F 35.2 °F 37.9 °F 85% 29.26 in 7.0 mi West 12.7 mph 20.7 mph 0.08 in Rain Rain
7:52 PM 42.1 °F 36.6 °F 37.0 °F 82% 29.29 in 10.0 mi West 9.2 mph 17.3 mph 0.02 in Rain Light Rain
8:52 PM 42.1 °F 37.1 °F 37.0 °F 82% 29.30 in 10.0 mi WNW 8.1 mph - 0.00 in   Overcast
9:52 PM 42.1 °F 35.7 °F 36.0 °F 79% 29.33 in 10.0 mi NW 11.5 mph 17.3 mph 0.00 in   Overcast
10:52 PM 42.1 °F 34.5 °F 34.0 °F 73% 29.35 in 10.0 mi NW 15.0 mph 25.3 mph 0.00 in   Overcast
11:52 PM 43.0 °F 34.0 °F 33.1 °F 68% 29.37 in 10.0 mi WNW 21.9 mph 36.8 mph N/A   Overcast